This is the latest recevied weather packets stored in our database for station/object K6GMW. If no packets are shown the sender has not sent any weather packets the latest 10 day(s).
| Time | Temp. | Humidity | Pressure | Rain* | Wind** | Luminosity | Snow |
|---|---|---|---|---|---|---|---|
| 1788389467 | 33.33° C | 52% | 1014.3 hPa | 0 mm | - | 224 W/m² | - |
| 1788389166 | 32.78° C | 52% | 1014.3 hPa | 0 mm | - | 121 W/m² | - |
| 1788388862 | 33.33° C | 52% | 1014.2 hPa | 0 mm | - | 107 W/m² | - |
| 1788388559 | 32.78° C | 53% | 1014.3 hPa | 0 mm | - | 205 W/m² | - |
| 1788388257 | 32.78° C | 54% | 1014.1 hPa | 0 mm | - | 216 W/m² | - |
| 1788387956 | 32.78° C | 54% | 1014.2 hPa | 0 mm | - | 203 W/m² | - |
| 1788387655 | 32.78° C | 54% | 1014.1 hPa | 0 mm | - | 183 W/m² | - |
| 1788387350 | 32.78° C | 54% | 1014 hPa | 0 mm | - | 175 W/m² | - |
| 1788387050 | 33.33° C | 53% | 1014 hPa | 0 mm | - | 190 W/m² | - |
| 1788386745 | 33.89° C | 51% | 1014 hPa | 0 mm | - | 161 W/m² | - |
| 1788386440 | 35° C | 49% | 1013.8 hPa | 0 mm | - | 242 W/m² | - |
| 1788386137 | 34.44° C | 49% | 1013.9 hPa | 0 mm | - | 509 W/m² | - |
| 1788385832 | 35° C | 48% | 1013.9 hPa | 0 mm | - | 456 W/m² | - |
| 1788385531 | 34.44° C | 49% | 1013.8 hPa | 0 mm | - | 306 W/m² | - |
| 1788385231 | 34.44° C | 49% | 1014.1 hPa | 0 mm | - | 185 W/m² | - |
| 1788384926 | 35.56° C | 47% | 1014 hPa | 0 mm | - | 411 W/m² | - |
| 1788384625 | 35° C | 48% | 1014 hPa | 0 mm | - | 533 W/m² | - |
| 1788384322 | 35° C | 48% | 1013.8 hPa | 0 mm | - | 515 W/m² | - |
| 1788384017 | 35° C | 49% | 1014.2 hPa | 0 mm | - | 611 W/m² | - |
| 1788383714 | 33.89° C | 50% | 1014.4 hPa | 0 mm | - | 441 W/m² | - |
| 1788383408 | 34.44° C | 49% | 1014.5 hPa | 0 mm | - | 195 W/m² | - |
| 1788383108 | 34.44° C | 49% | 1014.5 hPa | 0 mm | - | 263 W/m² | - |
| 1788382807 | 34.44° C | 48% | 1014.9 hPa | 0 mm | - | 189 W/m² | - |
| 1788382501 | 35° C | 47% | 1014.5 hPa | 0 mm | - | 558 W/m² | - |
| 1788382197 | 35° C | 48% | 1014.5 hPa | 0 mm | - | 640 W/m² | - |
* Rain latest hour (hover to see other rain measurements)
** Current wind speed in m/s (hover to see current wind gust speed)